Location: Unspecified
(48.8656°N, 0.0000°E)
Time: 20:45:22
(UTC+00:00)

Vanguard 1 - Pass Details

Date: 21 June 2019
Orbit: 653 x 3830 km, 34.3° (Epoch: 15 July)

Event Time Altitude Azimuth Distance (km) Brightness Sun altitude
Rises 00:41:48 0° 200° (SSW) 7,818 - -17.1°
Reaches altitude 10° 00:49:52 10° 186° (S) 6,441 - -16.9°
Exits shadow 00:55:08 16° 173° (S) 5,606 13.3 -16.7°
Maximum altitude 01:01:21 19° 150° (SSE) 4,859 13.2 -16.5°
Drops below altitude 10° 01:10:01 10° 112° (ESE) 4,738 13.5 -16.1°
Sets 01:14:29 0° 95° (E) 5,225 13.9 -15.9°
